Regional Weather Roundup
Issued by NWS Cleveland, OH

Home | Current Version | Previous Version | Graphics & Text | Print | Product List | Glossary On
Versions: 1 2 3 4 5 6 7 8 9 10 11 12 13 14 15 16 17 18 19 20 21 22 23 24 25 26 27 28 29 30 31 32 33 34 35 36 37 38 39 40 41 42 43 44 45 46 47 48 49 50
000
ASUS41 KCLE 250902
RWRCLE
OHIO REGIONAL WEATHER ROUNDUP
NATIONAL WEATHER SERVICE CLEVELAND, OH
500 AM EDT MON MAY 25 2015

NOTE: "FAIR" INDICATES FEW OR NO CLOUDS BELOW 12,000 FEET WITH NO
SIGNIFICANT WEATHER AND/OR OBSTRUCTIONS TO VISIBILITY.

OHZ001>008-015>018-024>027-034-035-043-044-251000-
   NORTHWEST OHIO

CITY           SKY/WX    TMP DP  RH WIND       PRES   REMARKS
DEFIANCE       CLEAR     69  53  56 S10       30.01S
FINDLAY        PTCLDY    68  52  56 S10       30.04F
TOLEDO EXPRESS CLEAR     65  51  60 S5        30.02F
TOLEDO EXEC    CLEAR     68  51  54 S10       30.03F
LIMA           MOCLDY    70  53  54 S12       30.05S
$$

OHZ009>014-019>023-028>033-038-089-251000-
   NORTHEAST OHIO

CITY           SKY/WX    TMP DP  RH WIND       PRES   REMARKS
CLE-HOPKINS    PTCLDY    70  51  51 S13G20    30.10F
CLE-LAKEFRONT  MOCLDY    69  51  52 S15       30.07S
CUY CO. ARPT   NOT AVBL
LORAIN-ELYRIA  PTCLDY    64  53  67 S10       30.08F
ASHTABULA      PTCLDY    60  47  61 S9        30.13S
AKRON-CANTON   CLEAR     62  51  67 S7        30.13F
WOOSTER        CLEAR     62  51  67 S6        30.12F
MANSFIELD      CLEAR     66  53  63 S12       30.11S
YOUNGSTOWN     PTCLDY    65  48  54 S8        30.14S
$$

OHZ042-051>053-060>062-070>072-077>081-251000-
  SOUTHWEST OHIO

CITY           SKY/WX    TMP DP  RH WIND       PRES   REMARKS
CINC-COVINGTON CLOUDY    70  56  61 S10       30.09S
CINC-LUNKEN    MOCLDY    66  57  72 SW3       30.10R
HAMILTON       MOCLDY    71  55  56 SE3       30.09S
DAYTON         CLOUDY    71  54  54 S12       30.09S
WRIGHT-PAT AFB CLOUDY    65  53  65 S2        30.09S
DAYTON GENERAL MOCLDY    68  54  60 S9        30.09S
WILMINGTON     MOCLDY    67  52  58 S9        30.11S
$$

OHZ036-037-039>041-045>050-054>059-063>069-073>076-082>088-251000-
  CENTRAL AND SOUTHEAST OHIO

CITY           SKY/WX    TMP DP  RH WIND       PRES   REMARKS
COLUMBUS       MOCLDY    66  54  65 S7        30.11S
OSU AIRPORT    PTCLDY    66  54  65 S7        30.11S
BOLTON FIELD   NOT AVBL
RICKENBACK AFB NOT AVBL
NEWARK         CLEAR     57  54  89 CALM      30.12S
MARION         CLEAR     64  53  67 S9        30.09F
LANCASTER      PTCLDY    62  54  74 SE5       30.13S
ZANESVILLE     CLEAR     61  52  72 S8        30.14S
NEW PHILLY     CLEAR     59  54  83 SE6       30.15S
$$


USA.gov is the U.S. government's official web portal to all federal, state and local government web resources and services.